Date String (YYYY-MM-DD hh:mm:ss) UTC,Instrument flags,absolute air pressure of the measurement (hPa),sample flow rate (lpm),inlet stack bypass flow (lpm),air temperature of the measurement (°C),ambient temperature measured by the external sensor (°C),aerosol sample conditioner tube jacket temperature (°C),OPC LED temperature (°C),internal box temperature (°C),relative humidity of the measurement (%),span deviation,mass concentration of particles derived from Lorenz-Mie calculation of OPC scattering (μg/m³),mass concentration of particles derived from Lorenz-Mie calculation of OPC scattering (μg/m³),mass concentration of particles derived from Lorenz-Mie calculation of OPC scattering (μg/m³)
DateTimeUTC,F1_M11,P_M11,Q1_M11,Q2_M11,T1_M11,T2_M11,T3_M11,T4_M11,T5_M11,U1_M11,ZSPAN_M11,X0_M11,X2_M11,X1_M11
2023-12-12 06:00:00,SystemResetWarning,0834.4,5.01,000.00,023.4,022.4,000.0,031.7,024.7,21.5,0000.0,0008.03,0005.32,0005.10
2023-12-12 06:01:00,SystemResetWarning,0834.4,5.00,000.00,023.4,022.4,000.0,031.7,024.8,21.5,0000.0,0007.98,0005.32,0005.12
2023-12-12 06:02:00,SystemResetWarning,0834.4,5.00,000.00,023.4,022.4,000.0,031.7,024.8,21.5,0000.0,0007.99,0005.32,0005.12
2023-12-12 06:03:00,SystemResetWarning,0834.4,5.01,000.00,023.4,022.4,000.0,031.7,024.8,21.5,0000.0,0008.02,0005.33,0005.12
2023-12-12 06:04:00,SystemResetWarning,0834.4,5.00,000.00,023.4,022.4,000.0,031.7,024.8,21.5,0000.0,0008.09,0005.35,0005.12
2023-12-12 06:05:00,SystemResetWarning,0834.3,5.00,000.00,023.4,022.4,000.0,031.7,024.8,21.5,0000.0,0007.94,0005.36,0005.12
2023-12-12 06:06:00,SystemResetWarning,0834.3,4.99,000.00,023.4,022.4,000.0,031.7,024.8,21.5,0000.0,0007.76,0005.36,0005.12
2023-12-12 06:07:00,SystemResetWarning,0834.6,5.00,000.00,023.4,022.4,000.0,031.7,024.8,21.5,0000.0,0007.72,0005.38,0005.13
2023-12-12 06:08:00,SystemResetWarning,0834.7,5.01,000.00,023.4,022.4,000.0,031.7,024.8,21.5,0000.0,0007.78,0005.42,0005.15
2023-12-12 06:09:00,SystemResetWarning,0834.3,5.01,000.00,023.4,022.4,000.0,031.7,024.7,21.5,0000.0,0007.85,0005.45,0005.16
2023-12-12 06:10:00,SystemResetWarning,0834.4,5.01,000.00,023.4,022.4,000.0,031.7,024.8,21.5,0000.0,0007.79,0005.46,0005.18
2023-12-12 06:11:00,SystemResetWarning,0834.3,5.00,000.00,023.4,022.4,000.0,031.7,024.8,21.5,0000.0,0007.80,0005.48,0005.19
2023-12-12 06:12:00,SystemResetWarning,0834.4,5.00,000.00,023.4,022.4,000.0,031.7,024.8,21.5,0000.0,0007.88,0005.49,0005.19
2023-12-12 06:13:00,SystemResetWarning,0834.2,5.00,000.00,023.4,022.4,000.0,031.7,024.8,21.5,0000.0,0007.96,0005.50,0005.21
2023-12-12 06:14:00,SystemResetWarning,0834.4,5.00,000.00,023.4,022.4,000.0,031.7,024.7,21.5,0000.0,0008.17,0005.50,0005.23
2023-12-12 06:15:00,SystemResetWarning,0834.3,5.00,000.00,023.4,022.4,000.0,031.7,024.7,21.5,0000.0,0008.14,0005.52,0005.26
2023-12-12 06:16:00,SystemResetWarning,0834.3,4.99,000.00,023.4,022.4,000.0,031.7,024.7,21.5,0000.0,0008.13,0005.57,0005.29
2023-12-12 06:17:00,SystemResetWarning,0834.4,5.01,000.00,023.4,022.4,000.0,031.7,024.7,21.5,0000.0,0008.12,0005.60,0005.32
2023-12-12 06:18:00,SystemResetWarning,0834.5,5.00,000.00,023.4,022.3,000.0,031.7,024.7,21.5,0000.0,0008.13,0005.62,0005.35
2023-12-12 06:19:00,SystemResetWarning,0834.4,5.00,000.00,023.4,022.3,000.0,031.7,024.6,21.5,0000.0,0008.17,0005.62,0005.37
2023-12-12 06:20:00,SystemResetWarning,0834.7,4.99,000.00,023.3,022.3,000.0,031.7,024.7,21.6,0000.0,0008.11,0005.60,0005.38
2023-12-12 06:21:00,SystemResetWarning,0834.4,5.00,000.00,023.3,022.3,000.0,031.7,024.6,21.6,0000.0,0008.11,0005.61,0005.39
2023-12-12 06:22:00,SystemResetWarning,0834.4,4.99,000.00,023.3,022.3,000.0,031.7,024.6,21.6,0000.0,0008.12,0005.60,0005.39
2023-12-12 06:23:00,SystemResetWarning,0834.4,5.00,000.00,023.3,022.3,000.0,031.7,024.7,21.6,0000.0,0008.05,0005.60,0005.39
2023-12-12 06:24:00,SystemResetWarning,0834.5,4.99,000.00,023.3,022.3,000.0,031.7,024.6,21.6,0000.0,0007.98,0005.61,0005.39
2023-12-12 06:25:00,SystemResetWarning,0834.4,5.01,000.00,023.3,022.3,000.0,031.7,024.6,21.6,0000.0,0007.77,0005.62,0005.40
2023-12-12 06:26:00,SystemResetWarning,0834.3,5.00,000.00,023.3,022.3,000.0,031.7,024.6,21.6,0000.0,0007.76,0005.62,0005.41
2023-12-12 06:27:00,SystemResetWarning,0834.4,5.00,000.00,023.3,022.3,000.0,031.6,024.6,21.6,0000.0,0008.00,0005.61,0005.41
2023-12-12 06:28:00,SystemResetWarning,0834.3,5.00,000.00,023.3,022.3,000.0,031.6,024.6,21.6,0000.0,0008.26,0005.63,0005.41
2023-12-12 06:29:00,SystemResetWarning,0834.6,5.00,000.00,023.3,022.3,000.0,031.6,024.6,21.6,0000.0,0008.28,0005.63,0005.40
2023-12-12 06:30:00,SystemResetWarning,0834.2,4.99,000.00,023.3,022.2,000.0,031.6,024.6,21.7,0000.0,0008.27,0005.64,0005.40
2023-12-12 06:31:00,SystemResetWarning,0834.4,5.00,000.00,023.3,022.2,000.0,031.6,024.6,21.7,0000.0,0008.52,0005.66,0005.41
2023-12-12 06:32:00,SystemResetWarning,0834.5,5.00,000.00,023.3,022.2,000.0,031.6,024.6,21.7,0000.0,0008.96,0005.66,0005.41
2023-12-12 06:33:00,SystemResetWarning,0834.4,5.00,000.00,023.3,022.2,000.0,031.6,024.6,21.7,0000.0,0008.99,0005.68,0005.42
2023-12-12 06:34:00,SystemResetWarning,0834.3,5.00,000.00,023.2,022.2,000.0,031.6,024.6,21.7,0000.0,0009.02,0005.71,0005.43
2023-12-12 06:35:00,SystemResetWarning,0834.6,5.00,000.00,023.3,022.3,000.0,031.6,024.6,21.7,0000.0,0009.06,0005.74,0005.43
2023-12-12 06:36:00,SystemResetWarning,0834.5,5.01,000.00,023.2,022.3,000.0,031.6,024.6,21.7,0000.0,0008.99,0005.72,0005.42
2023-12-12 06:37:00,SystemResetWarning,0834.3,5.00,000.00,023.2,022.3,000.0,031.6,024.6,21.7,0000.0,0008.99,0005.71,0005.40
2023-12-12 06:38:00,SystemResetWarning,0834.2,5.01,000.00,023.2,022.3,000.0,031.6,024.6,21.7,0000.0,0008.92,0005.70,0005.39
2023-12-12 06:39:00,SystemResetWarning,0834.2,5.01,000.00,023.2,022.3,000.0,031.6,024.6,21.7,0000.0,0008.52,0005.68,0005.39
2023-12-12 06:40:00,SystemResetWarning,0834.2,5.00,000.00,023.2,022.3,000.0,031.6,024.6,21.7,0000.0,0008.86,0005.68,0005.39
2023-12-12 06:41:00,SystemResetWarning,0834.2,5.00,000.00,023.2,022.2,000.0,031.6,024.6,21.8,0000.0,0008.86,0005.67,0005.41
2023-12-12 06:42:00,SystemResetWarning,0834.2,5.00,000.00,023.2,022.2,000.0,031.6,024.5,21.8,0000.0,0008.76,0005.66,0005.41
2023-12-12 06:43:00,SystemResetWarning,0834.2,5.00,000.00,023.2,022.2,000.0,031.6,024.6,21.8,0000.0,0008.26,0005.69,0005.43
2023-12-12 06:44:00,SystemResetWarning,0834.2,5.00,000.00,023.2,022.2,000.0,031.6,024.6,21.8,0000.0,0008.27,0005.71,0005.45
2023-12-12 06:45:00,SystemResetWarning,0834.2,4.99,000.00,023.2,022.2,000.0,031.6,024.6,21.8,0000.0,0008.34,0005.74,0005.47
2023-12-12 06:46:00,SystemResetWarning,0834.2,5.00,000.00,023.2,022.2,000.0,031.6,024.5,21.8,0000.0,0008.38,0005.76,0005.50
2023-12-12 06:47:00,SystemResetWarning,0834.2,5.00,000.00,023.2,022.2,000.0,031.5,024.5,21.8,0000.0,0008.54,0005.82,0005.55
2023-12-12 06:48:00,SystemResetWarning,0834.2,5.01,000.00,023.2,022.2,000.0,031.5,024.5,21.8,0000.0,0008.72,0005.89,0005.59
2023-12-12 06:49:00,SystemResetWarning,0834.2,5.01,000.00,023.2,022.2,000.0,031.5,024.5,21.8,0000.0,0008.87,0005.97,0005.65
2023-12-12 06:50:00,SystemResetWarning,0834.2,5.00,000.00,023.2,022.2,000.0,031.5,024.5,21.9,0000.0,0008.88,0006.01,0005.70
2023-12-12 06:51:00,SystemResetWarning,0834.2,4.99,000.00,023.2,022.2,000.0,031.5,024.5,21.9,0000.0,0008.59,0006.05,0005.72
2023-12-12 06:52:00,SystemResetWarning,0834.2,4.99,000.00,023.2,022.2,000.0,031.5,024.5,21.9,0000.0,0008.64,0006.10,0005.74
2023-12-12 06:53:00,SystemResetWarning,0834.2,5.00,000.00,023.2,022.2,000.0,031.5,024.5,21.9,0000.0,0008.69,0006.15,0005.77
2023-12-12 06:54:00,SystemResetWarning,0834.2,5.00,000.00,023.2,022.2,000.0,031.5,024.5,21.9,0000.0,0008.70,0006.20,0005.83
2023-12-12 06:55:00,SystemResetWarning,0834.1,5.00,000.00,023.2,022.2,000.0,031.5,024.4,21.9,0000.0,0008.68,0006.24,0005.88
2023-12-12 06:56:00,SystemResetWarning,0834.1,5.01,000.00,023.2,022.1,000.0,031.5,024.4,21.9,0000.0,0008.67,0006.27,0005.93
2023-12-12 06:57:00,SystemResetWarning,0834.1,5.00,000.00,023.2,022.1,000.0,031.5,024.4,21.9,0000.0,0008.67,0006.29,0005.95
2023-12-12 06:58:00,SystemResetWarning,0834.1,5.00,000.00,023.2,022.1,000.0,031.5,024.5,21.9,0000.0,0008.57,0006.30,0005.96
2023-12-12 06:59:00,SystemResetWarning,0834.1,5.00,000.00,023.1,022.1,000.0,031.5,024.5,21.9,0000.0,0008.48,0006.32,0006.01
